Langley AFB, VA

7:26 AM EST on November 24, 2017 (GMT -0500)
Langley Air Force Base

Weather History for KLFI - July, 2013

Change the Weather History Date:

Wednesday, July 24, 2013

  Actual Average Record
Temperature  
Mean Temperature 79 °F -  
Max Temperature 89 °F 85 °F 104 °F (2010)
Min Temperature 69 °F 72 °F 42 °F (2006)
Cooling Degree Days 14    
Growing Degree Days 29 (Base 50)    
Moisture  
Dew Point 72 °F    
Average Humidity 81    
Maximum Humidity 100    
Minimum Humidity 55    
Precipitation  
Precipitation 0.68 in - - ()
Sea Level Pressure  
Sea Level Pressure 29.80 in    
Wind  
Wind Speed 8 mph (NNE)    
Max Wind Speed 36 mph    
Max Gust Speed 58 mph    
Visibility 8 miles    
Events Rain , Thunderstorm    
Averages and records for this station are not official NWS values.
T = Trace of Precipitation, MM = Missing Value Source: NWS Daily Summary

Daily Weather History Graph

Daily Weather History Graph

Search for Another Location

Airport or City:

Trip Planner

Search our weather history database for the weather conditions in past years. The results will help you decide how hot, cold, wet, or windy it might be!

Date:

Astronomy

Jul. 24, 2013 Rise Set
Actual Time 6:04 AM EDT 8:19 PM EDT
Civil Twilight 5:34 AM EDT 8:48 PM EDT
Nautical Twilight 4:58 AM EDT 9:24 PM EDT
Astronomical Twilight 4:19 AM EDT 10:03 PM EDT
Moon 9:29 PM EDT 8:17 AM EDT
Length of Visible Light 15h 13m
Length of Day
14h 14m
Waning Gibbous, 95% of the Moon is Illuminated
Jul 24
Waning Gibbous
Jul 29
Last Quarter
Aug 6
New
Aug 14
First Quarter
Aug 20
Full

Hourly Weather History & Observations

Time (EDT) Temp. Heat Index Dew Point Humidity Pressure Visibility Wind Dir Wind Speed Gust Speed Precip Events Conditions
12:58 AM 79.0 °F - 74.5 °F 86% 29.76 in 10.0 mi SW 5.8 mph - N/A   Clear
1:58 AM 77.4 °F - 74.5 °F 91% 29.74 in 10.0 mi SW 4.6 mph - N/A   Clear
2:58 AM 75.6 °F - 75.2 °F 99% 29.73 in 10.0 mi WSW 4.6 mph - N/A   Clear
3:58 AM 75.4 °F - 75.0 °F 99% 29.71 in 10.0 mi West 3.5 mph - N/A   Clear
4:58 AM 75.0 °F - 74.8 °F 99% 29.71 in 10.0 mi West 5.8 mph - N/A   Clear
5:58 AM 75.6 °F - 75.4 °F 99% 29.73 in 10.0 mi SW 1.2 mph - N/A   Clear
6:58 AM 75.6 °F - 75.6 °F 100% 29.74 in 10.0 mi SSW 4.6 mph - N/A   Clear
7:58 AM 78.1 °F - 75.7 °F 92% 29.76 in 10.0 mi WSW 6.9 mph - N/A   Clear
8:58 AM 80.6 °F 86.6 °F 76.1 °F 86% 29.77 in 10.0 mi SW 4.6 mph - N/A   Clear
9:58 AM 84.0 °F 91.5 °F 74.7 °F 73% 29.78 in 10.0 mi WSW 5.8 mph - N/A   Clear
10:58 AM 86.2 °F 96.4 °F 76.1 °F 72% 29.79 in 10.0 mi Variable 2.3 mph - N/A   Clear
11:58 AM 88.5 °F 94.9 °F 71.4 °F 57% 29.79 in 10.0 mi NW 5.8 mph - N/A   Clear
12:58 PM 89.8 °F 96.5 °F 71.8 °F 55% 29.79 in 10.0 mi NW 6.9 mph - N/A   Scattered Clouds
1:58 PM 86.9 °F 98.3 °F 77.0 °F 72% 29.78 in 10.0 mi ENE 16.1 mph - N/A   Mostly Cloudy
2:58 PM 84.6 °F 90.7 °F 72.7 °F 67% 29.79 in 10.0 mi NE 8.1 mph - N/A   Partly Cloudy
3:58 PM 84.6 °F 89.4 °F 70.5 °F 63% 29.78 in 10.0 mi NNE 10.4 mph - N/A   Partly Cloudy
4:58 PM 85.6 °F 89.4 °F 68.9 °F 57% 29.79 in 10.0 mi NNE 9.2 mph - N/A   Clear
5:58 PM 84.9 °F 89.4 °F 70.0 °F 61% 29.79 in 10.0 mi NE 12.7 mph - N/A   Clear
6:58 PM 82.2 °F 86.4 °F 70.5 °F 68% 29.79 in 10.0 mi NE 9.2 mph - N/A   Clear
7:58 PM 81.7 °F 86.3 °F 72.0 °F 72% 29.81 in 10.0 mi NE 8.1 mph - N/A   Clear
8:58 PM 80.4 °F 84.4 °F 72.0 °F 75% 29.84 in 10.0 mi NNE 8.1 mph - N/A   Scattered Clouds
9:58 PM 80.1 °F 83.8 °F 71.8 °F 76% 29.85 in 10.0 mi NNE 8.1 mph - N/A   Clear
10:58 PM 79.7 °F - 76.3 °F 89% 29.85 in 10.0 mi ENE 16.1 mph - N/A   Partly Cloudy
11:23 PM 78.8 °F - 75.2 °F 89% 29.84 in 10.0 mi ENE 12.7 mph - N/A Thunderstorm Thunderstorm
11:33 PM 78.8 °F - 73.4 °F 83% 29.84 in 10.0 mi ESE 6.9 mph - N/A Thunderstorm Thunderstorm
11:37 PM 78.8 °F - 73.4 °F 83% 29.85 in 8.0 mi SE 13.8 mph 21.9 mph N/A Rain , Thunderstorm Light Thunderstorms and Rain
11:38 PM 77.0 °F - 73.4 °F 89% 29.85 in 4.0 mi ESE 20.7 mph 31.1 mph N/A Rain , Thunderstorm Light Thunderstorms and Rain
11:40 PM 77.0 °F - 71.6 °F 83% 29.85 in 1.8 mi East 27.6 mph 35.7 mph N/A Rain , Thunderstorm Light Thunderstorms and Rain
11:43 PM 73.4 °F - 68.0 °F 83% 29.81 in 0.8 mi ENE 35.7 mph 57.5 mph N/A Rain , Thunderstorm Heavy Thunderstorms and Rain
11:46 PM 71.6 °F - 66.2 °F 83% 29.83 in 0.5 mi NE 24.2 mph 57.5 mph N/A Rain , Thunderstorm Heavy Thunderstorms and Rain
11:50 PM 69.8 °F - 64.4 °F 83% 29.83 in 0.5 mi NNE 12.7 mph 57.5 mph N/A Rain , Thunderstorm Heavy Thunderstorms and Rain
11:55 PM 69.8 °F - 66.2 °F 88% 29.83 in 2.5 mi NNE 10.4 mph 36.8 mph N/A Rain , Thunderstorm Light Thunderstorms and Rain
11:58 PM 69.1 °F - 66.2 °F 91% 29.85 in 4.0 mi NNE 10.4 mph - 0.68 in Rain , Thunderstorm Light Thunderstorms and Rain